Hourly Weather Roundup
Issued by NWS Central Illinois

Home | Current Version | Previous Version | Text Only | Print | Product List | Glossary On
Versions: 1 2 3 4 5 6 7 8 9 10 11 12 13 14 15 16 17 18 19 20 21 22 23 24 25 26 27 28 29 30 31 32 33 34 35 36 37 38 39 40 41 42 43 44 45 46 47 48 49 50
000
NZUS43 KILX 251410
HWRILX

AREA WEATHER ROUNDUP
NATIONAL WEATHER SERVICE, LINCOLN IL
900 AM CDT SAT OCT 25 2014


CITY           SKY/WX    TMP DP  RH WIND       PRES   REMARKS
BLOOMINGTON    FOG       56  56 100 W8        30.01R VSB 1/8
CHAMPAIGN      SUNNY     56  54  93 W7        30.00R
DECATUR        CLOUDY    60  58  92 W6        30.02R FOG
FLORA          SUNNY     61  57  87 W5        30.03R
GALESBURG      FOG       51  51 100 W3        30.02R VSB<1/4
JACKSONVILLE   NOT AVBL
LACON          FOG       56  55  97 W3        30.00R VSB 1/4
LAWRENCEVILLE  SUNNY     61  57  87 W6        30.02R
LITCHFIELD     CLOUDY    58  56  93 CALM      30.03R FOG
$$


CITY           SKY/WX    TMP DP  RH WIND       PRES   REMARKS
LINCOLN        CLOUDY    59  58  96 CALM      29.99S FOG
MACOMB         FOG       52  52 100 W6        30.05R VSB 1/4
MATTOON        SUNNY     59  56  89 W8        30.00R
MT CARMEL AP   SUNNY     64  59  82 W8        30.02R
OLNEY-NOBLE AP SUNNY     59  55  88 CALM      30.02S
PARIS          SUNNY     58  55  91 W6        30.01R
PEORIA         FOG       55  53  93 W5        30.01R VSB 1/8
PONTIAC        CLOUDY    58  57  97 W7        29.99R FOG
RANTOUL        SUNNY     57  54  89 W10       29.99R FOG
ROBINSON       SUNNY     62  58  86 W8        30.02R
SPRINGFIELD    CLOUDY    61  58  90 SW5       30.02R FOG
TAYLORVILLE    CLOUDY    59  57  94 W3        30.03R
$$

...REGIONAL REPORTS...


CITY           SKY/WX    TMP DP  RH WIND       PRES   REMARKS
CHICAGO O`HARE MOSUNNY   59  54  83 W9        29.92R FOG
KANKAKEE       CLOUDY    56  55  94 W7        29.97R FOG
MOLINE         SUNNY     56  52  86 VRB3      30.02R
MOUNT VERNON   SUNNY     57  55  94 W3        30.05R
PITTSFIELD     FOG       60  58  94 W6        30.04S VSB<1/4
QUINCY         FOG       55  55 100 CALM      30.03R VSB<1/4
ROCKFORD       SUNNY     55  54  96 W5        29.98R FOG
$$


CITY           SKY/WX    TMP DP  RH WIND       PRES   REMARKS
BURLINGTON     FOG       53  52  96 NW3       30.03R VSB 1/2
CEDAR RAPIDS   SUNNY     51  49  92 NW7       30.04R
DES MOINES     SUNNY     55  46  71 NW5       30.08R
KIRKSVILLE     SUNNY     57  57 100 N6        30.06R
OTTUMWA        SUNNY     54  48  80 NW6       30.05R
ST LOUIS       MOSUNNY   64  61  88 W3        30.05R HAZE
$$


CITY           SKY/WX    TMP DP  RH WIND       PRES   REMARKS
TERRE HAUTE    MOSUNNY   58  54  86 SW7       30.00S
EVANSVILLE     CLOUDY    61  55  81 SW6       30.04R
INDIANAPOLIS   MOSUNNY   57  52  83 SW8       29.97S
LAFAYETTE      SUNNY     54  52  93 W5        29.97R
MADISON        MOSUNNY   57  50  77 W6        29.95R
MILWAUKEE      MOSUNNY   58  49  72 NW10      29.90S
$$





USA.gov is the U.S. government's official web portal to all federal, state and local government web resources and services.